DW0156 Weather Reports


time (UTC)temp
F
wind
direction
speed
knots
gust
knots
rain 1hr
in
rain 24hr
in
rain mn
in
humidity
%
barometer
mb
20260505194406 58 263 0.0 1.7 0.00 0.01 0.00 83 1022.4
20260505193854 58 263 0.0 2.6 0.00 0.01 0.00 83 1022.4
20260505193335 58 263 0.9 2.6 0.00 0.01 0.00 83 1022.4
20260505192818 58 263 0.9 2.6 0.00 0.01 0.00 83 1022.4
20260505191006 58 263 0.0 2.6 0.00 0.01 0.00 83 1022.4
20260505190500 58 263 0.9 2.6 0.00 0.01 0.00 83 1022.4
20260505190003 57 263 0.9 2.6 0.00 0.01 0.00 83 1022.4
20260505185444 57 263 0.9 2.6 0.00 0.01 0.00 83 1022.5
20260505184951 57 263 0.0 2.6 0.00 0.01 0.00 83 1022.5
20260505184442 57 263 0.0 1.7 0.00 0.01 0.00 83 1022.5
20260505183315 57 263 0.0 1.7 0.00 0.01 0.00 83 1022.5
20260505181520 57 263 0.0 1.7 0.00 0.01 0.00 84 1022.4
20260505181027 57 263 0.0 1.7 0.00 0.01 0.00 84 1022.5
20260505180527 57 263 0.9 1.7 0.00 0.01 0.00 84 1022.5
20260505180016 57 263 0.0 1.7 0.00 0.01 0.00 84 1022.5
20260505175523 57 263 0.0 1.7 0.00 0.01 0.00 84 1022.6
20260505174404 57 263 0.0 1.7 0.00 0.05 0.00 84 1022.7
20260505173244 57 263 0.0 1.7 0.00 0.05 0.00 84 1022.7
20260505172731 57 263 0.0 1.7 0.00 0.05 0.00 84 1022.7
20260505172240 57 263 0.0 3.5 0.00 0.05 0.00 84 1022.7
20260505171727 57 263 0.0 3.5 0.00 0.05 0.00 84 1022.7
20260505171209 57 263 0.0 3.5 0.00 0.05 0.00 84 1022.8
20260505170650 57 263 0.0 3.5 0.00 0.05 0.00 84 1022.8
20260505165515 57 263 0.0 0.9 0.00 0.05 0.00 84 1022.8
20260505164322 57 263 0.0 1.7 0.00 0.05 0.00 84 1023.1
20260505163822 57 263 0.0 1.7 0.00 0.05 0.00 84 1023.1
20260505163317 57 263 0.0 0.0 0.00 0.05 0.00 84 1023.1
20260505162811 57 263 0.0 0.9 0.00 0.05 0.00 84 1023.2
20260505162307 57 263 0.0 0.9 0.00 0.05 0.00 84 1023.2
20260505161753 57 263 0.0 0.9 0.00 0.05 0.00 84 1023.2
20260505161245 57 263 0.0 0.9 0.00 0.05 0.00 84 1023.3
20260505160123 58 263 0.0 0.0 0.00 0.08 0.00 84 1023.3
20260505153223 58 263 0.0 0.9 0.00 0.08 0.00 84 1023.4
20260505152732 58 263 0.0 0.0 0.00 0.08 0.00 84 1023.5
20260505152216 58 263 0.0 1.7 0.00 0.09 0.00 84 1023.5
20260505151702 57 263 0.0 1.7 0.00 0.10 0.00 84 1023.5
20260505151149 58 263 0.0 0.9 0.00 0.10 0.00 84 1023.7
20260505150643 57 263 0.0 1.7 0.00 0.10 0.00 83 1023.7
20260505150134 58 263 0.0 1.7 0.00 0.10 0.00 84 1023.7
20260505140555 58 263 0.0 0.0 0.00 0.11 0.11 83 1023.8
20260505125033 58 263 0.0 0.0 0.00 0.11 0.11 81 1024.3
20260505124537 58 263 0.0 0.0 0.00 0.11 0.11 81 1024.3
20260505124044 58 263 0.0 0.0 0.00 0.11 0.11 81 1024.3
20260505123527 58 263 0.0 0.0 0.00 0.11 0.11 81 1024.3
20260505122420 58 263 0.0 0.0 0.00 0.11 0.11 80 1024.3
20260505121922 58 263 0.0 0.0 0.00 0.11 0.11 80 1024.3
20260505121420 58 263 0.0 0.0 0.00 0.11 0.11 80 1024.3
20260505120919 58 263 0.0 0.0 0.00 0.11 0.11 80 1024.3
20260505115748 58 263 0.0 0.0 0.00 0.11 0.11 80 1024.3
20260505115243 58 263 0.0 0.0 0.00 0.11 0.11 80 1024.3
20260505114740 58 263 0.0 0.0 0.00 0.11 0.11 80 1024.3
20260505113605 58 263 0.0 0.0 0.00 0.11 0.11 80 1024.3
20260505112441 58 263 0.0 0.0 0.00 0.11 0.11 79 1024.4
20260505111926 58 263 0.0 0.0 0.00 0.11 0.11 79 1024.4
20260505110801 58 263 0.0 0.0 0.00 0.11 0.11 79 1024.4
20260505110248 58 263 0.0 0.0 0.00 0.11 0.11 79 1024.4
20260505102213 58 263 0.0 0.0 0.00 0.13 0.11 79 1024.4
20260505101658 58 263 0.0 0.0 0.00 0.13 0.11 78 1024.4
20260505101138 58 263 0.0 0.0 0.00 0.13 0.11 78 1024.4
20260505100624 58 263 0.0 0.0 0.00 0.13 0.11 78 1024.4
20260505100121 58 263 0.0 0.0 0.00 0.13 0.11 78 1024.4
20260505095604 58 263 0.0 0.0 0.00 0.13 0.11 78 1024.4
20260505095055 58 263 0.0 0.0 0.00 0.13 0.11 78 1024.4
20260505094549 59 263 0.0 0.0 0.00 0.13 0.11 77 1024.4
20260505094053 59 263 0.0 0.0 0.00 0.13 0.11 77 1024.3
20260505093555 59 263 0.0 0.0 0.00 0.13 0.11 77 1024.3
20260505092433 59 263 0.0 0.0 0.00 0.13 0.11 74 1024.2
20260505091915 59 263 0.0 0.0 0.00 0.13 0.11 74 1024.2
20260505091413 59 263 0.0 1.7 0.00 0.13 0.11 74 1024.2
20260505090903 59 263 0.0 0.0 0.00 0.13 0.11 74 1024.0
20260505085140 59 263 0.0 0.0 0.00 0.13 0.11 72 1023.8
20260505084632 59 263 0.0 0.0 0.00 0.13 0.11 72 1023.8
20260505084136 59 263 0.0 0.0 0.00 0.13 0.11 71 1023.7
20260505083644 59 263 0.0 0.0 0.00 0.13 0.11 70 1023.7
20260505083131 60 263 0.0 0.0 0.00 0.13 0.11 70 1023.7
20260505082618 60 263 0.0 0.0 0.00 0.13 0.11 70 1023.5
20260505081514 60 263 0.0 0.0 0.00 0.13 0.11 69 1023.5
20260505081021 60 263 0.0 1.7 0.00 0.13 0.11 69 1023.4
20260505075904 61 263 0.9 1.7 0.00 0.13 0.11 68 1023.3
20260505075408 61 263 0.9 1.7 0.00 0.13 0.11 68 1023.3
20260505074855 62 263 0.9 1.7 0.00 0.13 0.11 67 1023.3
20260505073742 62 263 0.9 3.5 0.00 0.13 0.11 66 1023.3
20260505073251 62 263 0.9 3.5 0.00 0.13 0.11 66 1023.3
20260505072759 62 263 1.7 3.5 0.00 0.13 0.11 66 1023.2
20260505072258 62 263 0.9 4.3 0.00 0.13 0.11 66 1023.2
20260505071805 63 263 0.9 4.3 0.00 0.13 0.11 66 1023.2
20260505071307 63 263 0.9 4.3 0.00 0.13 0.11 65 1023.2
20260505070756 63 263 1.7 4.3 0.00 0.13 0.11 65 1023.2
20260505070238 63 263 1.7 6.1 0.00 0.13 0.11 64 1023.2
20260505065725 63 263 1.7 6.1 0.00 0.13 0.11 64 1023.3
20260505065219 63 263 1.7 7.8 0.00 0.13 0.11 63 1023.3
20260505064723 63 263 2.6 7.8 0.00 0.13 0.11 62 1023.3
20260505063620 63 263 3.5 7.8 0.00 0.13 0.11 60 1023.2
20260505063122 63 263 2.6 7.8 0.00 0.13 0.11 61 1023.2
20260505062630 63 263 2.6 7.8 0.00 0.13 0.11 61 1023.2
20260505062124 63 263 2.6 7.8 0.00 0.13 0.11 61 1023.2
20260505061606 63 263 1.7 7.0 0.00 0.13 0.11 61 1023.2
20260505061056 63 263 1.7 7.0 0.00 0.13 0.11 61 1023.2
20260505060540 63 263 1.7 7.0 0.00 0.13 0.11 62 1023.2
20260505055407 63 263 2.6 7.0 0.00 0.13 0.11 59 1023.1
20260505054853 63 263 1.7 7.0 0.00 0.13 0.11 60 1023.1
20260505054402 63 263 2.6 7.8 0.00 0.13 0.11 62 1022.9
20260505053853 63 263 2.6 7.8 0.00 0.13 0.11 63 1022.9
20260505053342 62 263 1.7 8.7 0.00 0.13 0.11 64 1022.9
20260505052828 62 263 1.7 8.7 0.00 0.13 0.11 63 1022.8
20260505052311 62 263 2.6 8.7 0.00 0.13 0.11 63 1022.8
20260505051806 62 263 3.5 8.7 0.00 0.13 0.11 63 1022.8
20260505051314 62 263 2.6 7.8 0.00 0.13 0.11 63 1022.8
20260505050813 62 263 2.6 7.8 0.00 0.13 0.11 64 1022.8
20260505041339 63 263 4.3 9.6 0.00 0.13 0.11 59 1022.9
20260505040834 64 263 3.5 9.6 0.00 0.13 0.11 60 1022.9
20260505040321 63 263 1.7 8.7 0.00 0.13 0.11 61 1022.9
20260505035804 62 263 1.7 6.1 0.00 0.13 0.11 62 1023.1
20260505034628 62 263 1.7 5.2 0.00 0.13 0.11 64 1023.1
20260505033528 62 263 0.9 5.2 0.00 0.13 0.11 66 1023.2
20260505033016 62 263 0.9 5.2 0.00 0.13 0.11 67 1023.2
20260505032503 62 263 0.9 5.2 0.00 0.13 0.11 69 1023.3
20260505031949 61 263 0.0 3.5 0.00 0.13 0.11 69 1023.3
20260505031443 61 263 0.9 0.9 0.00 0.13 0.11 69 1023.3
20260505030927 61 263 1.7 5.2 0.00 0.13 0.11 69 1023.6
20260505030408 61 263 1.7 5.2 0.00 0.13 0.11 70 1023.6
20260505023929 61 263 2.6 5.2 0.00 0.13 0.11 71 1023.9
20260505023411 61 263 2.6 5.2 0.00 0.13 0.11 71 1023.9
20260505022910 61 263 1.7 5.2 0.00 0.13 0.11 71 1023.9
20260505022416 61 263 0.9 5.2 0.00 0.13 0.11 71 1023.8
20260505021920 61 263 1.7 5.2 0.00 0.13 0.11 69 1023.8
20260505021415 61 263 1.7 5.2 0.00 0.13 0.11 69 1023.8
20260505020904 61 263 1.7 5.2 0.00 0.13 0.11 68 1023.8
20260505015738 61 263 2.6 5.2 0.00 0.14 0.11 69 1023.9
20260505015242 61 263 1.7 5.2 0.00 0.14 0.11 69 1023.9
20260505014736 61 263 0.9 4.3 0.00 0.14 0.11 70 1023.9
20260505013616 60 263 0.9 2.6 0.00 0.14 0.11 72 1023.9
20260505013104 60 263 0.9 3.5 0.00 0.14 0.11 73 1023.9
20260505012559 60 263 0.9 3.5 0.00 0.14 0.11 74 1023.8
20260505012043 60 263 0.9 3.5 0.00 0.14 0.11 75 1023.8
20260505011527 60 263 0.9 2.6 0.00 0.14 0.11 76 1023.8
20260505011012 60 263 0.0 1.7 0.00 0.14 0.11 77 1023.7
20260505010516 60 263 0.0 1.7 0.00 0.14 0.11 78 1023.7
20260505010026 60 263 0.0 3.5 0.00 0.14 0.11 78 1023.7
20260505005534 59 263 0.0 2.6 0.00 0.14 0.11 80 1023.5
20260505005044 59 263 0.0 2.6 0.00 0.14 0.11 81 1023.5
20260505004542 59 263 0.0 1.7 0.00 0.14 0.11 82 1023.5
20260505004038 59 263 0.0 1.7 0.00 0.14 0.11 83 1023.3
20260505003533 59 263 0.0 1.7 0.00 0.14 0.11 84 1023.3
20260505003023 59 263 0.0 0.9 0.00 0.14 0.11 86 1023.3
20260505002503 59 263 0.0 3.5 0.00 0.14 0.11 88 1023.3
20260505002012 59 263 0.0 3.5 0.00 0.14 0.11 88 1023.3
20260505001458 58 263 0.0 1.7 0.00 0.14 0.11 89 1023.3
20260505000947 58 263 0.0 0.0 0.00 0.14 0.11 90 1023.2
20260505000445 57 263 0.9 2.6 0.00 0.14 0.11 90 1023.2
20260504235926 57 263 0.0 2.6 0.00 0.14 0.11 90 1023.2
20260504235425 58 263 0.0 2.6 0.00 0.14 0.11 91 1023.2
20260504234918 57 263 0.0 0.0 0.00 0.14 0.11 92 1023.2
20260504234359 57 263 0.0 0.0 0.00 0.14 0.11 92 1023.1
20260504233249 57 263 0.0 1.7 0.00 0.14 0.11 92 1023.1
20260504231440 57 263 0.0 0.0 0.00 0.14 0.11 93 1022.9
20260504230946 56 263 0.0 0.0 0.00 0.14 0.11 93 1022.9
20260504230453 56 263 0.0 1.7 0.00 0.14 0.11 92 1022.9
20260504225958 56 263 0.0 0.0 0.00 0.14 0.11 93 1022.9
20260504225506 56 263 0.0 0.9 0.00 0.14 0.11 93 1022.8
20260504224955 56 263 0.0 0.9 0.00 0.14 0.11 92 1022.8
20260504223813 55 263 0.0 3.5 0.00 0.14 0.11 92 1022.7
20260504223255 55 263 0.0 3.5 0.00 0.14 0.11 92 1022.7
20260504222736 55 263 0.0 0.9 0.00 0.14 0.11 93 1022.5
20260504222219 55 263 0.0 0.9 0.00 0.14 0.11 93 1022.5
20260504221659 55 263 0.0 0.9 0.00 0.14 0.11 93 1022.5
20260504221155 55 263 0.0 0.0 0.00 0.14 0.11 92 1022.3
20260504220701 55 263 0.0 1.7 0.00 0.14 0.11 92 1022.3
20260504220157 55 263 0.0 0.9 0.00 0.14 0.11 92 1022.3
20260504215658 55 263 0.0 0.0 0.00 0.14 0.11 92 1022.2
20260504215207 55 263 0.0 1.7 0.00 0.14 0.11 92 1022.2
20260504214647 55 263 0.0 0.0 0.00 0.14 0.11 92 1022.2
20260504213531 55 263 0.0 0.0 0.00 0.14 0.11 92 1022.2
20260504213023 55 263 0.0 0.0 0.00 0.14 0.11 92 1022.2
20260504212525 55 263 0.0 0.0 0.00 0.14 0.11 92 1021.9
20260504211350 55 263 0.0 0.0 0.00 0.14 0.11 92 1021.7
20260504210845 55 263 0.0 0.9 0.00 0.14 0.11 92 1021.7
20260504210353 55 263 0.9 1.7 0.00 0.14 0.11 92 1021.7
20260504205841 55 263 0.9 3.5 0.00 0.14 0.11 92 1021.7
20260504204714 55 263 0.0 1.7 0.00 0.14 0.10 92 1021.7
20260504204202 55 263 0.0 0.0 0.00 0.14 0.10 92 1021.6
20260504203645 55 263 0.0 0.0 0.00 0.14 0.10 92 1021.6
20260504203125 55 263 0.0 0.0 0.00 0.14 0.10 92 1021.6
20260504202622 55 263 0.0 0.0 0.00 0.14 0.10 92 1021.3
20260504200240 55 263 0.0 0.0 0.00 0.14 0.10 92 1021.2
20260504195732 55 263 0.0 0.0 0.00 0.14 0.10 92 1021.1